KE0BZR Weather Reports


Display with metric or nautical units.
time (UTC)temp
F
wind
direction
speed
MPH
gust
MPH
rain 1hr
in
rain 24hr
in
rain mn
in
humidity
%
barometer
mb
20211205053050 56 248 0.0 0.0 0.00 0.00 0.00 24 1009.3
20211205051538 56 248 0.0 0.0 0.00 0.00 0.00 24 1009.3
20211205050043 57 242 1.0 5.0 0.00 0.00 0.00 24 1009.8
20211205044641 58 338 7.0 11.0 0.00 0.00 0.00 24 1009.7
20211205043132 58 335 9.0 15.0 0.00 0.00 0.00 24 1010.0
20211205041537 59 327 9.0 18.0 0.00 0.00 0.00 23 1009.9
20211205040043 59 315 9.0 16.0 0.00 0.00 0.00 23 1010.3
20211205034531 59 289 0.0 5.0 0.00 0.00 0.00 22 1010.3
20211205033050 60 294 0.0 6.0 0.00 0.00 0.00 22 1010.4
20211205031614 61 355 3.0 17.0 0.00 0.00 0.00 22 1010.5
20211205030042 61 299 8.0 24.0 0.00 0.00 0.00 22 1010.7
20211205024537 60 306 7.0 20.0 0.00 0.00 0.00 23 1010.8
20211205023059 59 303 0.0 6.0 0.00 0.00 0.00 21 1010.9
20211205021528 57 198 3.0 8.0 0.00 0.00 0.00 22 1010.7
20211205020033 56 282 0.0 3.0 0.00 0.00 0.00 23 1010.9
20211205014537 57 247 0.0 0.0 0.00 0.00 0.00 22 1010.9
20211205013041 59 252 0.0 0.0 0.00 0.00 0.00 21 1010.9
20211205011522 60 251 0.0 0.0 0.00 0.00 0.00 20 1011.3
20211205010017 61 259 0.0 10.0 0.00 0.00 0.00 19 1011.4
20211205004524 62 293 3.0 14.0 0.00 0.00 0.00 18 1011.4
20211205003014 62 279 5.0 20.0 0.00 0.00 0.00 17 1011.4
20211205000018 62 281 0.0 3.0 0.00 0.00 0.00 16 1011.7
20211204234517 63 298 0.0 2.0 0.00 0.00 0.00 15 1011.8
20211204233017 64 303 0.0 2.0 0.00 0.00 0.00 15 1011.5
20211204231519 65 315 1.0 13.0 0.00 0.00 0.00 14 1011.9
20211204230033 66 298 5.0 13.0 0.00 0.00 0.00 14 1011.9
20211204224507 66 302 5.0 15.0 0.00 0.00 0.00 14 1011.9
20211204223008 67 323 4.0 17.0 0.00 0.00 0.00 14 1012.0
20211204221506 67 305 6.0 16.0 0.00 0.00 0.00 14 1011.9
20211204220021 67 296 12.0 22.0 0.00 0.00 0.00 14 1011.9
20211204214506 68 225 5.0 17.0 0.00 0.00 0.00 14 1011.9
20211204213006 65 317 2.0 19.0 0.00 0.00 0.00 22 1011.9
20211204211659 65 309 0.0 10.0 0.00 0.00 0.00 24 1012.1
20211204210147 65 40 1.0 6.0 0.00 0.00 0.00 24 1012.2
20211204204611 65 46 0.0 6.0 0.00 0.00 0.00 22 1012.4
20211204203136 67 148 0.0 5.0 0.00 0.00 0.00 22 1012.6
20211204201559 66 343 4.0 9.0 0.00 0.00 0.00 20 1012.8
20211204200102 64 165 0.0 0.0 0.00 0.00 0.00 23 1013.1
20211204194612 63 82 0.0 4.0 0.00 0.00 0.00 25 1013.5
20211204193120 61 136 0.0 3.0 0.00 0.00 0.00 27 1013.8
20211204191609 61 127 0.0 2.0 0.00 0.00 0.00 29 1014.5
20211204190109 60 136 0.0 3.0 0.00 0.00 0.00 30 1014.9
20211204184549 59 59 1.0 5.0 0.00 0.00 0.00 31 1015.3
20211204183145 59 113 0.0 2.0 0.00 0.00 0.00 31 1015.6
20211204181532 58 121 0.0 0.0 0.00 0.00 0.00 33 1015.9
20211204180021 56 360 0.0 2.0 0.00 0.00 0.00 35 1016.2
20211204174521 53 5 0.0 0.0 0.00 0.00 0.00 39 1016.4
20211204173013 52 24 0.0 2.0 0.00 0.00 0.00 42 1016.7
20211204171550 51 170 0.0 0.0 0.00 0.00 0.00 43 1016.7
20211204170014 48 170 0.0 0.0 0.00 0.00 0.00 46 1017.1
20211204164642 48 167 0.0 0.0 0.00 0.00 0.00 49 1017.3
20211204163137 45 167 0.0 0.0 0.00 0.00 0.00 52 1017.4
20211204161624 43 267 0.0 0.0 0.00 0.00 0.00 55 1017.5
20211204160149 42 266 0.0 0.0 0.00 0.00 0.00 55 1017.5
20211204154555 42 331 0.0 0.0 0.00 0.00 0.00 58 1017.6
20211204153151 40 332 0.0 0.0 0.00 0.00 0.00 63 1017.9
20211204151629 38 333 0.0 0.0 0.00 0.00 0.00 65 1018.1
20211204150037 36 333 0.0 0.0 0.00 0.00 0.00 68 1018.1
20211204144534 35 335 0.0 0.0 0.00 0.00 0.00 69 1018.0
20211204143026 34 335 0.0 4.0 0.00 0.00 0.00 71 1018.1
20211204141610 32 336 3.0 6.0 0.00 0.00 0.00 74 1018.2
20211204140036 31 343 2.0 6.0 0.00 0.00 0.00 78 1018.2
20211204134515 31 338 0.0 0.0 0.00 0.00 0.00 77 1017.9
20211204133013 31 338 0.0 0.0 0.00 0.00 0.00 76 1017.7
20211204131516 32 340 0.0 0.0 0.00 0.00 0.00 76 1017.6
20211204130036 32 340 0.0 0.0 0.00 0.00 0.00 75 1017.4
20211204124516 33 340 0.0 0.0 0.00 0.00 0.00 75 1017.4
20211204123040 32 350 1.0 5.0 0.00 0.00 0.00 73 1017.4
20211204121521 34 313 0.0 0.0 0.00 0.00 0.00 71 1017.7
20211204120013 34 315 0.0 0.0 0.00 0.00 0.00 68 1017.5
20211204114509 35 341 0.0 0.0 0.00 0.00 0.00 71 1017.7
20211204113017 34 341 0.0 0.0 0.00 0.00 0.00 71 1017.7
20211204111505 34 341 0.0 0.0 0.00 0.00 0.00 69 1017.7
20211204110007 34 346 0.0 0.0 0.00 0.00 0.00 70 1017.6
20211204104505 34 350 0.0 4.0 0.00 0.00 0.00 70 1017.6
20211204103032 33 348 2.0 5.0 0.00 0.00 0.00 71 1017.6
20211204101504 33 326 0.0 10.0 0.00 0.00 0.00 72 1017.5
20211204100205 32 345 0.0 0.0 0.00 0.00 0.00 73 1017.6
20211204094657 32 336 0.0 0.0 0.00 0.00 0.00 72 1017.6
20211204093100 34 336 0.0 0.0 0.00 0.00 0.00 70 1017.7
20211204091619 33 336 0.0 0.0 0.00 0.00 0.00 70 1017.7
20211204090123 34 336 0.0 0.0 0.00 0.00 0.00 69 1017.8
20211204084619 33 336 0.0 0.0 0.00 0.00 0.00 71 1018.0
20211204083126 33 336 0.0 0.0 0.00 0.00 0.00 71 1018.0
20211204081618 34 336 0.0 0.0 0.00 0.00 0.00 69 1018.1
20211204080125 35 336 0.0 0.0 0.00 0.00 0.00 69 1018.2
20211204074558 35 336 0.0 0.0 0.00 0.00 0.00 70 1018.3
20211204073115 36 336 0.0 0.0 0.00 0.00 0.00 68 1018.5
20211204071601 35 336 0.0 0.0 0.00 0.00 0.00 68 1018.6
20211204070120 36 335 0.0 0.0 0.00 0.00 0.00 68 1018.7
20211204064555 35 333 0.0 0.0 0.00 0.00 0.00 68 1018.8
20211204063039 37 333 0.0 0.0 0.00 0.00 0.00 66 1018.8
20211204061541 37 333 0.0 0.0 0.00 0.00 0.00 65 1018.8
20211204060056 37 333 0.0 0.0 0.00 0.00 0.00 67 1018.8
20211204054620 36 333 0.0 0.0 0.00 0.00 0.00 68 1018.7